Weather History for Piney Island, NC

Change the Weather History Date:

Tuesday, January 8, 2013

  Actual Average (KMRH) Record (KMRH)
Temperature  
Mean Temperature 50 °F -  
Max Temperature 55 °F 54 °F 72 °F (2008)
Min Temperature 44 °F 35 °F 16 °F (1968)
Degree Days  
Heating Degree Days 16    
Moisture  
Dew Point 44 °F    
Average Humidity 81    
Maximum Humidity 93    
Minimum Humidity 74    
Precipitation  
Precipitation 0.00 in - - ()
Sea Level Pressure  
Sea Level Pressure 30.42 in    
Wind  
Wind Speed 8 mph (NE)    
Max Wind Speed 12 mph    
Max Gust Speed -    
Averages and records for this station are not official NWS values.
T = Trace of Precipitation, MM = Missing Value Source: NWS Daily Summary

Daily Weather History Graph

Daily Weather History Graph

Search for Another Location

Airport:

Trip Planner

Search our weather history database for the weather conditions in past years. The results will help you decide how hot, cold, wet, or windy it might be!

Date:

Astronomy

Jan. 08, 2013 Rise Set
Actual Time 7:14 AM EST 5:11 PM EST
Civil Twilight 6:46 AM EST 5:39 PM EST
Nautical Twilight 6:15 AM EST 6:10 PM EST
Astronomical Twilight 5:44 AM EST 6:41 PM EST
Moon 3:45 AM EST (1/8) 2:11 PM EST (1/8)
Length of Visible Light 10h 52m
Length of Day
9h 56m
Waning Crescent, 14% of the Moon is Illuminated
Jan 8
Waning Crescent
Jan 11
New
Jan 18
First Quarter
Jan 26
Full
Feb 3
Last Quarter

Hourly Weather History & Observations

Time (EST) Temp. Windchill Dew Point Humidity Pressure Visibility Wind Dir Wind Speed Gust Speed Precip Events Conditions
12:56 AM 45.0 °F 40.1 °F 37.0 °F 74% 30.43 in - NNE 9.2 mph - N/A   Clear
1:56 AM 45.0 °F 40.6 °F 37.9 °F 76% 30.41 in - NNE 8.1 mph - N/A   Clear
2:56 AM 44.1 °F 39.5 °F 39.0 °F 82% 30.42 in - NNE 8.1 mph - N/A   Clear
3:56 AM 46.0 °F 41.4 °F 39.0 °F 76% 30.40 in - NNE 9.2 mph - N/A   Clear
4:56 AM 46.0 °F 41.4 °F 39.9 °F 79% 30.41 in - NNE 9.2 mph - N/A   Partly Cloudy
5:56 AM 46.9 °F - 39.9 °F 77% 30.42 in - NE 8.1 mph - N/A   Overcast
6:56 AM 48.0 °F - 42.1 °F 80% 30.43 in - NE 11.5 mph - N/A   Overcast
7:56 AM 48.9 °F - 42.1 °F 77% 30.45 in - ENE 9.2 mph - N/A   Overcast
8:56 AM 50.0 °F - 43.0 °F 77% 30.46 in - NE 10.4 mph - N/A   Overcast
9:56 AM 51.1 °F - 44.1 °F 77% 30.47 in - NE 11.5 mph - N/A   Overcast
10:56 AM 52.0 °F - 45.0 °F 77% 30.46 in - ENE 10.4 mph - N/A   Overcast
11:56 AM 50.0 °F - 45.0 °F 83% 30.44 in - ENE 5.8 mph - N/A   Overcast
12:56 PM 51.1 °F - 46.0 °F 83% 30.40 in - East 8.1 mph - N/A   Overcast
1:56 PM 52.0 °F - 46.9 °F 83% 30.39 in - East 8.1 mph - N/A   Overcast
2:56 PM 53.1 °F - 48.0 °F 83% 30.38 in - East 6.9 mph - N/A   Mostly Cloudy
3:56 PM 55.0 °F - 48.0 °F 77% 30.38 in - East 9.2 mph - N/A   Overcast
4:56 PM 55.0 °F - 46.9 °F 74% 30.39 in - East 5.8 mph - N/A   Partly Cloudy
5:56 PM 53.1 °F - 46.9 °F 80% 30.40 in - Calm Calm - N/A   Overcast
6:56 PM 52.0 °F - 48.0 °F 86% 30.41 in - Calm Calm - N/A   Mostly Cloudy
7:56 PM 50.0 °F - 46.9 °F 89% 30.41 in - North 5.8 mph - N/A   Overcast
8:56 PM 51.1 °F - 46.9 °F 86% 30.41 in - Calm Calm - N/A   Clear
9:56 PM 50.0 °F - 46.9 °F 89% 30.41 in - North 4.6 mph - N/A   Clear
10:56 PM 46.9 °F - 45.0 °F 93% 30.40 in - North 6.9 mph - N/A   Clear
11:56 PM 48.0 °F - 45.0 °F 89% 30.40 in - North 4.6 mph - N/A   Clear